Погода в Почепе

Россия / Брянская область     52˚55′44″N   33˚27′15″E
темп.,
°C
ветер,
м/с
пор.,
м/с
влажн.,
%
обл.,
%
осадки,
мм/ч
давл.,
гПа
погр.,
м
5 декабря, сб
сб500:00−5˚юв511870 0.0 1032351
03:00−5˚юв510890 0.0 1033348
06:00−5˚юв510890 0.0 1032346
09:00−5˚юв510880 0.0 1033339
12:00−3˚юв610800 0.0 1034399
15:00−2˚юв510840 0.0 1034410
18:00−4˚юв411840 0.0 1035308
21:00−5˚юв412750 0.0 1036290
6 декабря, вс
вс600:00−6˚юв410740 0.0 1036275
03:00−7˚юв410760 0.0 1038223
06:00−7˚юв48750 0.0 1038202
09:00−7˚юв48740 0.0 1039200
12:00−4˚юв510660 0.0 1039302
15:00−4˚вюв49720 0.0 1039311
18:00−6˚вюв410810 0.0 1039238
21:00−6˚вюв511810 0.0 1039304
7 декабря, пн
пн700:00−7˚вюв411830 0.0 1040328
03:00−7˚вюв411830 0.0 1040303
06:00−8˚вюв410850 0.0 1039288
09:00−8˚вюв410840 0.0 1039302
12:00−5˚вюв510750 0.0 1039422
15:00−4˚вюв511760 0.0 1038486
18:00−6˚вюв513780 0.0 1037378
21:00−6˚вюв513770 0.0 1037367
8 декабря, вт
вт800:00−7˚вюв513760 0.0 1037368
03:00−6˚вюв512760 0.0 1036348
06:00−6˚вюв512770 0.0 1036344
09:00−6˚вюв512750 0.0 1036350
12:00−4˚вюв611650 0.0 1035434
15:00−3˚вюв611650 0.0 1034421
18:00−5˚вюв613650 0.0 1034350
21:00−6˚вюв512660 0.0 1034344
9 декабря, ср
ср900:00−6˚вюв511670 0.0 1034335
03:00−7˚вюв411710 0.0 1034325
06:00−7˚вюв511740 0.0 1033311
09:00−7˚вюв411760 0.0 1033302
12:00−5˚вюв510690 0.0 1033379
15:00−4˚вюв510720 0.0 1032461
18:00−6˚вюв511761 0.0 1031416
21:00−6˚юв5118448 0.0 1031550